PROFILE

 METAR AND TAF INFORMATION
ADDS - METARS form results

(1051 UTC 15 May 2021)
http://aviationweather.gov/metar/data/
 
LPMA 151030Z 03020KT 350V050 9999 FEW016 22/14 Q1021
LPMA 151000Z 02017KT 340V050 9999 FEW016 22/14 Q1021
TAF LPMA 150500Z 1506/1606 36013KT 9999 SCT015 TEMPO 1506/1606 01018G28KT 

 AIRPORT MAP

 RUNWAY INFORMATION
Runway 05 Runway length 9110 ft Runway width 148 ft
Runway elevation 147 ft Runway displaced threshold 480 ft Runway heading 45
Runway 23 Runway length 9110 ft Runway width 148 ft
Runway elevation 192 ft Runway displaced threshold 490 ft Runway heading 225

 AIRPORT FREQUENCIES
Type APP Name APP Frequency 119.2 MHZ
Type TWR Name TWR Frequency 118.35 MHZ

 AIRPORT NEAR NAVIGATION AIDS
Type VOR-DME Name Madeira Frequency 112200 KHZ
Type NDB Name Madeira Frequency 318 KHZ